^^
Grace C. Lehan Memorial Weather Station Historical Data
Daily Summary for August 8, 2021 Units:  Metric    English   Both
Daily Weekly Monthly Yearly
  High: Low: Average:
Temperature: 34.2 °C 22.8 °C 26.3 °C
Dew Point: 25.6 °C 20.1 °C 22.7 °C
Humidity: 95% 55.2% 82%
Wind Speed: 3.5km/h 0km/h 0km/h
Wind Gust: 9.7km/h - -
Wind- - SW
Pressure: 1016.1 hPa 1013.4 hPa -
Precipitation: 5.33 mm    
 
 
Tabular Data for August 8, 2021
Time Temperature Dew Point Pressure Wind Wind Speed Wind Gust Humidity Rainfall Rate (Hourly) solar
00:00 24.3 °C 21.2 °C 1015.8 hPa Calm   1.6 km/h 83% 0 mm 0 W/m2
00:09 24.2 °C 21.2 °C 1015.8 hPa Calm     83% 0 mm 0 W/m2
00:14 24.2 °C 21.1 °C 1015.8 hPa Calm     83% 0 mm 0 W/m2
00:19 24.1 °C 21 °C 1015.8 hPa Calm     83% 0 mm 0 W/m2
00:24 24.1 °C 20.9 °C 1015.5 hPa Calm     83% 0 mm 0 W/m2
00:29 23.9 °C 20.9 °C 1015.8 hPa Calm     83% 0 mm 0 W/m2
00:34 23.9 °C 20.8 °C 1015.8 hPa Calm     83% 0 mm 0 W/m2
00:39 23.8 °C 20.8 °C 1015.8 hPa Calm     83% 0 mm 0 W/m2
00:44 23.8 °C 20.7 °C 1015.8 hPa Calm     83% 0 mm 0 W/m2
00:49 23.7 °C 20.7 °C 1015.8 hPa Calm     83% 0 mm 0 W/m2
00:54 23.7 °C 20.6 °C 1015.5 hPa Calm     83% 0 mm 0 W/m2
00:59 23.6 °C 20.6 °C 1015.8 hPa Calm     83% 0 mm 0 W/m2
01:04 23.6 °C 20.5 °C 1015.8 hPa Calm     83% 0 mm 0 W/m2
01:09 23.5 °C 20.5 °C 1015.8 hPa Calm     83% 0 mm 0 W/m2
01:14 23.4 °C 20.4 °C 1015.8 hPa Calm     83% 0 mm 0 W/m2
01:19 23.4 °C 20.3 °C 1015.8 hPa Calm     83% 0 mm 0 W/m2
01:24 23.3 °C 20.4 °C 1015.8 hPa Calm     83.4% 0 mm 0 W/m2
01:29 23.3 °C 20.4 °C 1015.8 hPa Calm     84% 0 mm 0 W/m2
01:34 23.3 °C 20.4 °C 1015.8 hPa Calm     84% 0 mm 0 W/m2
01:39 23.2 °C 20.3 °C 1015.8 hPa Calm     84% 0 mm 0 W/m2
01:44 23.2 °C 20.3 °C 1015.8 hPa Calm     84% 0 mm 0 W/m2
01:49 23.1 °C 20.3 °C 1015.8 hPa Calm     84% 0 mm 0 W/m2
01:54 23.1 °C 20.2 °C 1015.5 hPa Calm     84% 0 mm 0 W/m2
01:59 23.1 °C 20.2 °C 1015.5 hPa Calm     84% 0 mm 0 W/m2
02:04 23 °C 20.2 °C 1015.5 hPa Calm     84% 0 mm 0 W/m2
02:09 23 °C 20.2 °C 1015.5 hPa Calm     84% 0 mm 0 W/m2
02:14 22.9 °C 20.1 °C 1015.5 hPa Calm     84% 0 mm 0 W/m2
02:19 22.9 °C 20.1 °C 1015.5 hPa Calm     84% 0 mm 0 W/m2
02:24 22.9 °C 20.1 °C 1015.5 hPa Calm     84% 0 mm 0 W/m2
02:29 22.9 °C 20.1 °C 1015.5 hPa Calm     84% 0 mm 0 W/m2
02:31 22.9 °C 20.1 °C 1015.5 hPa Calm     84% 0 mm 0 W/m2
03:00 22.9 °C 20.1 °C 1015.8 hPa Calm     84% 0 mm 0 W/m2
03:30 22.9 °C 20.2 °C 1015.5 hPa Calm     85% 0 mm 0 W/m2
04:04 22.9 °C 20.2 °C 1015.5 hPa Calm     85% 0 mm 0 W/m2
04:09 22.8 °C 20.2 °C 1015.5 hPa Calm     85% 0 mm 0 W/m2
04:14 22.8 °C 20.2 °C 1015.5 hPa Calm     85% 0 mm 0 W/m2
04:19 22.8 °C 20.2 °C 1015.8 hPa Calm     85% 0 mm 0 W/m2
04:24 22.8 °C 20.2 °C 1015.8 hPa Calm     85% 0 mm 0 W/m2
04:29 22.8 °C 20.2 °C 1015.8 hPa Calm     85% 0 mm 0 W/m2
04:34 22.8 °C 20.2 °C 1015.8 hPa Calm     85% 0 mm 0 W/m2
04:39 22.8 °C 20.2 °C 1015.8 hPa Calm     85% 0 mm 0 W/m2
04:44 22.8 °C 20.2 °C 1015.8 hPa Calm     85.3% 0 mm 0 W/m2
04:49 22.8 °C 20.4 °C 1015.8 hPa Calm     86% 0 mm 0 W/m2
04:54 22.8 °C 20.4 °C 1015.8 hPa Calm     86% 0 mm 0 W/m2
04:59 22.8 °C 20.4 °C 1015.8 hPa Calm     86% 0 mm 0 W/m2
05:04 22.8 °C 20.4 °C 1015.8 hPa Calm     86% 0 mm 0 W/m2
05:09 22.8 °C 20.4 °C 1015.8 hPa Calm     86% 0 mm 0 W/m2
05:14 22.8 °C 20.4 °C 1015.8 hPa Calm     86% 0 mm 0 W/m2
05:19 22.8 °C 20.4 °C 1015.8 hPa Calm     86% 0 mm 0 W/m2
05:24 22.8 °C 20.4 °C 1015.8 hPa Calm     86% 0 mm 0 W/m2
05:29 22.8 °C 20.4 °C 1015.8 hPa Calm     86% 0 mm 0 W/m2
05:34 22.8 °C 20.4 °C 1015.8 hPa Calm     86% 0 mm 0 W/m2
05:39 22.8 °C 20.4 °C 1015.8 hPa Calm     86% 0 mm 7 W/m2
05:44 22.8 °C 20.3 °C 1015.8 hPa Calm     86% 0 mm 11 W/m2
05:49 22.8 °C 20.3 °C 1015.8 hPa Calm     86% 0 mm 12 W/m2
05:54 22.8 °C 20.3 °C 1015.8 hPa Calm     86% 0 mm 16 W/m2
05:59 22.8 °C 20.3 °C 1015.8 hPa Calm     86% 0 mm 19 W/m2
06:04 22.8 °C 20.3 °C 1015.8 hPa Calm     86% 0 mm 23 W/m2
06:09 22.8 °C 20.4 °C 1015.8 hPa Calm     86% 0 mm 28 W/m2
06:14 22.8 °C 20.5 °C 1015.8 hPa Calm     86.7% 0 mm 39 W/m2
06:19 22.8 °C 20.6 °C 1015.8 hPa Calm     87% 0 mm 42 W/m2
06:24 22.9 °C 20.6 °C 1015.8 hPa Calm     87% 0 mm 46 W/m2
06:29 22.9 °C 20.6 °C 1015.8 hPa Calm     87% 0 mm 56 W/m2
06:34 22.9 °C 20.7 °C 1015.8 hPa Calm     87% 0 mm 81 W/m2
06:39 23 °C 20.7 °C 1015.8 hPa Calm     87% 0 mm 86 W/m2
06:44 23.1 °C 20.8 °C 1015.8 hPa Calm     86.8% 0 mm 86 W/m2
06:49 23.2 °C 20.8 °C 1015.8 hPa Calm     86% 0 mm 74 W/m2
06:54 23.3 °C 20.8 °C 1015.8 hPa Calm     86% 0 mm 79 W/m2
06:59 23.4 °C 20.8 °C 1015.8 hPa Calm     85.5% 0 mm 91 W/m2
07:04 23.4 °C 20.9 °C 1015.8 hPa Calm     86% 0 mm 109 W/m2
07:09 23.5 °C 20.9 °C 1015.8 hPa Calm     85.3% 0 mm 113 W/m2
07:14 23.6 °C 21.1 °C 1015.8 hPa Calm     85.8% 0 mm 123 W/m2
07:19 23.8 °C 21.1 °C 1015.8 hPa Calm     85.2% 0 mm 127 W/m2
07:24 23.9 °C 21.2 °C 1015.8 hPa Calm     85% 0 mm 137 W/m2
07:29 24 °C 21.3 °C 1015.8 hPa Calm     85% 0 mm 148 W/m2
07:34 24.1 °C 21.4 °C 1015.8 hPa Calm     85% 0 mm 141 W/m2
07:39 24.2 °C 21.5 °C 1015.8 hPa Calm     84.6% 0 mm 387 W/m2
07:44 24.4 °C 21.7 °C 1015.8 hPa Calm     84.6% 0 mm 387 W/m2
07:49 24.7 °C 21.7 °C 1015.8 hPa Calm     83.5% 0 mm 181 W/m2
07:54 24.9 °C 21.8 °C 1016.1 hPa Calm     83% 0 mm 371 W/m2
07:59 25.1 °C 21.9 °C 1015.8 hPa Calm     82.4% 0 mm 345 W/m2
08:04 25.6 °C 22.1 °C 1015.8 hPa Calm     81% 0 mm 381 W/m2
08:09 25.8 °C 22.3 °C 1016.1 hPa Calm     81% 0 mm 401 W/m2
08:14 26.2 °C 22.6 °C 1016.1 hPa Calm     80.5% 0 mm 424 W/m2
08:19 26.7 °C 22.8 °C 1016.1 hPa Calm     79.3% 0 mm 429 W/m2
08:24 27.2 °C 22.9 °C 1016.1 hPa Calm     77.4% 0 mm 454 W/m2
08:29 27.7 °C 23.2 °C 1016.1 hPa Calm     76.5% 0 mm 466 W/m2
08:34 28.1 °C 23.2 °C 1016.1 hPa Calm     74.9% 0 mm 478 W/m2
08:39 28.4 °C 23.3 °C 1016.1 hPa Calm     74% 0 mm 492 W/m2
08:44 28.7 °C 23.6 °C 1016.1 hPa Calm     73.8% 0 mm 515 W/m2
08:49 29.1 °C 23.7 °C 1015.8 hPa Calm     72.7% 0 mm 515 W/m2
08:54 29.3 °C 23.6 °C 1016.1 hPa Calm     71.6% 0 mm 529 W/m2
08:59 29.5 °C 23.7 °C 1016.1 hPa Calm     71.2% 0 mm 554 W/m2
09:04 29.8 °C 23.9 °C 1016.1 hPa Calm     70.7% 0 mm 598 W/m2
09:09 30 °C 24 °C 1016.1 hPa Calm     70.3% 0 mm 652 W/m2
09:14 30.3 °C 24.1 °C 1016.1 hPa Calm     69.7% 0 mm 729 W/m2
09:19 30.6 °C 24.5 °C 1016.1 hPa Calm     70.2% 0 mm 795 W/m2
09:24 30.9 °C 24.8 °C 1016.1 hPa Calm     69.8% 0 mm 819 W/m2
09:29 31.3 °C 24.3 °C 1016.1 hPa Calm     66.6% 0 mm 828 W/m2
09:34 31.4 °C 24.5 °C 1015.8 hPa SW 0.2 km/h 3.2 km/h 66.8% 0 mm 842 W/m2
09:39 31.4 °C 24.2 °C 1015.8 hPa Calm   3.2 km/h 65.7% 0 mm 425 W/m2
09:44 31.3 °C 24.4 °C 1015.8 hPa Calm   3.2 km/h 66.7% 0 mm 677 W/m2
09:49 31.4 °C 24.8 °C 1015.8 hPa Calm   3.2 km/h 68% 0 mm 554 W/m2
09:54 31.6 °C 24.8 °C 1015.8 hPa Calm   3.2 km/h 67% 0 mm 457 W/m2
09:59 31.7 °C 24.8 °C 1015.8 hPa Calm   3.2 km/h 67.2% 0 mm 519 W/m2
10:04 31.6 °C 24.4 °C 1015.8 hPa SW 0.2 km/h 4.8 km/h 65.7% 0 mm 649 W/m2
10:09 31.6 °C 24.8 °C 1015.8 hPa SW 0.2 km/h 4.8 km/h 67.5% 0 mm 758 W/m2
10:14 31.8 °C 25 °C 1015.8 hPa Calm   4.8 km/h 67.5% 0 mm 466 W/m2
10:19 31.9 °C 24.9 °C 1015.8 hPa Calm   4.8 km/h 66.9% 0 mm 378 W/m2
10:24 31.8 °C 24.8 °C 1015.8 hPa Calm   4.8 km/h 66.5% 0 mm 360 W/m2
10:29 31.7 °C 24.9 °C 1015.8 hPa SW 0.2 km/h 4.8 km/h 67.6% 0 mm 396 W/m2
10:34 31.6 °C 24.8 °C 1015.8 hPa Calm   4.8 km/h 67.3% 0 mm 432 W/m2
10:39 31.5 °C 24.9 °C 1015.8 hPa Calm     68% 0 mm 415 W/m2
10:44 31.5 °C 24.9 °C 1015.8 hPa Calm     68.2% 0 mm 445 W/m2
10:49 31.6 °C 25.1 °C 1015.8 hPa Calm   3.2 km/h 68.6% 0 mm 445 W/m2
10:54 31.7 °C 25.3 °C 1015.8 hPa WSW 0.2 km/h 4.8 km/h 68.9% 0 mm 912 W/m2
10:59 32 °C 24.9 °C 1015.5 hPa WSW 0.2 km/h 4.8 km/h 66.1% 0 mm 949 W/m2
11:04 32.3 °C 24.6 °C 1015.5 hPa Calm   4.8 km/h 64.1% 0 mm 946 W/m2
11:09 32.2 °C 24.7 °C 1015.5 hPa Calm     64.6% 0 mm 534 W/m2
11:14 32.1 °C 24.6 °C 1015.5 hPa Calm     64.8% 0 mm 559 W/m2
11:19 31.9 °C 24.9 °C 1015.5 hPa Calm     66.3% 0 mm 608 W/m2
11:24 32.1 °C 25.2 °C 1015.5 hPa Calm     67% 0 mm 926 W/m2
11:29 32.3 °C 24.8 °C 1015.5 hPa WSW 0.2 km/h 3.2 km/h 64.8% 0 mm 754 W/m2
11:34 32.6 °C 25.1 °C 1015.5 hPa Calm   3.2 km/h 64.7% 0 mm 717 W/m2
11:39 32.8 °C 25.3 °C 1015.5 hPa Calm     64.9% 0 mm 926 W/m2
11:44 33 °C 25.6 °C 1015.5 hPa Calm   1.6 km/h 65.2% 0 mm 877 W/m2
11:49 33.3 °C 25.2 °C 1015.5 hPa Calm   1.6 km/h 62.6% 0 mm 902 W/m2
11:54 33.4 °C 25.1 °C 1015.5 hPa Calm   1.6 km/h 61.8% 0 mm 905 W/m2
11:59 33.6 °C 24.8 °C 1015.5 hPa Calm   1.6 km/h 60.4% 0 mm 918 W/m2
12:00 33.7 °C 24.6 °C 1015.1 hPa Calm   1.6 km/h 59% 0 mm 912 W/m2
12:09 33.7 °C 23.4 °C 1015.1 hPa Calm     55.2% 0 mm 925 W/m2
12:14 33.8 °C 25.3 °C 1015.1 hPa Calm   4.8 km/h 61.2% 0 mm 912 W/m2
12:19 33.9 °C 25.1 °C 1015.1 hPa Calm   4.8 km/h 60.3% 0 mm 1035 W/m2
12:24 33.9 °C 25.4 °C 1014.8 hPa Calm   4.8 km/h 61.3% 0 mm 977 W/m2
12:29 33.8 °C 24.7 °C 1014.8 hPa SW 0.3 km/h 6.4 km/h 59.2% 0 mm 977 W/m2
12:34 33.7 °C 24.6 °C 1014.8 hPa Calm   6.4 km/h 59.2% 0 mm 652 W/m2
12:39 33.6 °C 24.8 °C 1014.4 hPa Calm     60.1% 0 mm 584 W/m2
12:44 33.4 °C 24.6 °C 1014.4 hPa Calm     59.7% 0 mm 385 W/m2
12:49 33.3 °C 24.3 °C 1014.4 hPa Calm     59.4% 0 mm 269 W/m2
12:54 33.2 °C 25 °C 1014.1 hPa Calm     62.3% 0 mm 995 W/m2
12:59 33.3 °C 24.7 °C 1014.1 hPa SW 0.3 km/h 4.8 km/h 60.8% 0 mm 926 W/m2
13:04 33.3 °C 24.7 °C 1014.1 hPa Calm   4.8 km/h 60.7% 0 mm 1002 W/m2
13:09 33.4 °C 25.1 °C 1014.1 hPa SW 0.2 km/h 1.6 km/h 61.6% 0 mm 1039 W/m2
13:14 33.7 °C 24.8 °C 1014.1 hPa SE 0.5 km/h 6.4 km/h 59.9% 0 mm 1063 W/m2
13:19 33.7 °C 24.4 °C 1014.1 hPa SW 0.2 km/h 6.4 km/h 58.2% 0 mm 1069 W/m2
13:24 33.9 °C 24.4 °C 1014.1 hPa SW 0.2 km/h 6.4 km/h 57.6% 0 mm 981 W/m2
13:29 34.1 °C 24.6 °C 1014.1 hPa WSW 1.1 km/h 9.7 km/h 58% 0 mm 1169 W/m2
13:34 34.2 °C 24.8 °C 1014.1 hPa South 1.3 km/h 9.7 km/h 58.2% 0 mm 1113 W/m2
13:39 34.1 °C 24.7 °C 1013.8 hPa SSE 0.3 km/h 6.4 km/h 58% 0 mm 1090 W/m2
13:44 34 °C 24.7 °C 1013.8 hPa SW 0.3 km/h 6.4 km/h 58.6% 0 mm 758 W/m2
13:49 33.9 °C 24.9 °C 1013.8 hPa Calm   6.4 km/h 59.7% 0 mm 374 W/m2
13:54 33.8 °C 24.9 °C 1013.8 hPa SW 0.5 km/h 6.4 km/h 59.9% 0 mm 281 W/m2
13:59 33.7 °C 24.6 °C 1013.8 hPa Calm   6.4 km/h 59.2% 0 mm 336 W/m2
14:04 33.6 °C 24.7 °C 1013.8 hPa Calm   6.4 km/h 59.8% 0 mm 506 W/m2
14:09 33.4 °C 24.2 °C 1013.8 hPa Calm   3.2 km/h 58.6% 0 mm 192 W/m2
14:14 33.3 °C 24.3 °C 1013.8 hPa SW 0.2 km/h 4.8 km/h 59.5% 0 mm 193 W/m2
14:19 33.1 °C 24.4 °C 1013.8 hPa SW 0.3 km/h 4.8 km/h 60.4% 0 mm 174 W/m2
14:24 32.9 °C 24.3 °C 1013.8 hPa SSW 0.2 km/h 4.8 km/h 61% 0 mm 105 W/m2
14:29 32.6 °C 24.2 °C 1013.4 hPa SSW 0.3 km/h 4.8 km/h 61.3% 0 mm 121 W/m2
14:34 32.4 °C 24.6 °C 1013.4 hPa SSW 1.3 km/h 6.4 km/h 63.1% 0 mm 295 W/m2
14:39 32.3 °C 24.6 °C 1013.8 hPa SSE 3.5 km/h 9.7 km/h 64% 0 mm 316 W/m2
14:44 31.8 °C 24.3 °C 1013.8 hPa South 1.9 km/h 9.7 km/h 64.7% 0 mm 294 W/m2
14:49 31.3 °C 23.9 °C 1013.8 hPa SSW 1 km/h 9.7 km/h 64.9% 0 mm 230 W/m2
14:54 30.9 °C 23.3 °C 1013.8 hPa SW 0.5 km/h 9.7 km/h 63.9% 0 mm 213 W/m2
14:59 30.7 °C 22.6 °C 1013.8 hPa Calm   9.7 km/h 62.2% 0 mm 202 W/m2
15:04 30.4 °C 22.1 °C 1013.8 hPa SW 0.2 km/h 9.7 km/h 61.3% 0 mm 202 W/m2
15:06 30.2 °C 21.9 °C 1013.8 hPa Calm   3.2 km/h 61% 0 mm 195 W/m2
15:30 29.2 °C 21.7 °C 1014.1 hPa Calm   9.7 km/h 64% 0 mm 102 W/m2
16:04 24.3 °C 22.1 °C 1013.8 hPa Calm     87% 3.56 mm 16 W/m2
16:09 24.3 °C 22.2 °C 1014.1 hPa Calm     87.8% 3.56 mm 16 W/m2
16:14 24.3 °C 22.4 °C 1014.1 hPa Calm     89% 3.56 mm 18 W/m2
16:19 24.3 °C 22.6 °C 1014.4 hPa Calm     90% 3.56 mm 19 W/m2
16:24 24.4 °C 22.6 °C 1014.4 hPa West 1.8 km/h 8 km/h 90% 3.56 mm 23 W/m2
16:29 24.3 °C 22.6 °C 1014.4 hPa West 1 km/h 8 km/h 90% 3.81 mm 30 W/m2
16:34 24.3 °C 22.7 °C 1014.4 hPa West 0.3 km/h 8 km/h 90.6% 3.81 mm 37 W/m2
16:39 24.3 °C 22.7 °C 1014.4 hPa Calm   4.8 km/h 91% 4.06 mm 37 W/m2
16:44 24.3 °C 22.7 °C 1014.1 hPa Calm   4.8 km/h 91% 4.06 mm 37 W/m2
16:49 24.2 °C 22.7 °C 1014.4 hPa Calm   4.8 km/h 91% 4.06 mm 35 W/m2
16:54 24.2 °C 22.6 °C 1014.4 hPa Calm   4.8 km/h 91% 4.32 mm 30 W/m2
16:59 24.2 °C 22.6 °C 1014.4 hPa Calm   4.8 km/h 91% 4.57 mm 25 W/m2
17:04 24.1 °C 22.6 °C 1014.4 hPa Calm   4.8 km/h 91.1% 4.57 mm 25 W/m2
17:09 24.1 °C 22.7 °C 1014.4 hPa Calm     92% 0.76 mm 23 W/m2
17:14 24.1 °C 22.7 °C 1014.4 hPa Calm     92% 1.02 mm 25 W/m2
17:19 24.1 °C 22.8 °C 1014.4 hPa Calm     92.2% 1.02 mm 25 W/m2
17:24 24.2 °C 22.9 °C 1014.4 hPa Calm     93% 1.02 mm 26 W/m2
17:29 24.2 °C 22.9 °C 1014.4 hPa Calm     93% 1.02 mm 26 W/m2
17:34 24.2 °C 22.9 °C 1014.4 hPa Calm     93% 1.27 mm 25 W/m2
17:39 24.2 °C 23 °C 1014.1 hPa Calm     93% 1.27 mm 21 W/m2
17:44 24.2 °C 23 °C 1014.1 hPa Calm     93% 1.27 mm 25 W/m2
17:49 24.2 °C 23 °C 1014.1 hPa Calm     93% 1.27 mm 30 W/m2
17:54 24.2 °C 22.9 °C 1014.1 hPa Calm     93% 1.27 mm 35 W/m2
17:59 24.2 °C 22.9 °C 1013.8 hPa Calm     93% 1.27 mm 37 W/m2
18:04 24.1 °C 22.9 °C 1013.8 hPa Calm     93% 1.27 mm 39 W/m2
18:09 24.1 °C 22.9 °C 1013.8 hPa Calm     93% 0.51 mm 39 W/m2
18:14 24.1 °C 22.9 °C 1013.8 hPa Calm     93.3% 0.51 mm 37 W/m2
18:19 24.1 °C 23.1 °C 1013.8 hPa Calm     94% 0.51 mm 35 W/m2
18:24 24.2 °C 23.2 °C 1013.8 hPa Calm     94% 0.51 mm 33 W/m2
18:29 24.2 °C 23.2 °C 1013.8 hPa Calm     94% 0.51 mm 30 W/m2
18:34 24.2 °C 23.2 °C 1013.8 hPa Calm     94% 0.51 mm 30 W/m2
18:39 24.2 °C 23.2 °C 1013.8 hPa Calm     94% 0.25 mm 26 W/m2
18:44 24.2 °C 23.2 °C 1013.8 hPa Calm     94% 0.51 mm 26 W/m2
18:49 24.2 °C 23.2 °C 1013.8 hPa Calm     94% 0.51 mm 26 W/m2
18:54 24.2 °C 23.2 °C 1013.8 hPa Calm     94% 0.51 mm 25 W/m2
18:59 24.2 °C 23.2 °C 1013.8 hPa Calm     94% 0.51 mm 25 W/m2
19:04 24.2 °C 23.2 °C 1013.8 hPa Calm     94% 0.51 mm 21 W/m2
19:09 24.2 °C 23.2 °C 1013.8 hPa Calm     94% 0.25 mm 18 W/m2
19:14 24.2 °C 23.2 °C 1013.8 hPa Calm     94% 0.25 mm 16 W/m2
19:19 24.2 °C 23.1 °C 1013.8 hPa Calm     94% 0.25 mm 18 W/m2
19:24 24.1 °C 23.1 °C 1013.8 hPa Calm     94% 0.25 mm 18 W/m2
19:29 24.1 °C 23.1 °C 1013.8 hPa Calm     94% 0.25 mm 18 W/m2
19:34 24.2 °C 23.2 °C 1013.8 hPa Calm     94% 0.25 mm 16 W/m2
19:39 24.2 °C 23.2 °C 1013.8 hPa Calm     94% 0.25 mm 14 W/m2
19:44 24.2 °C 23.2 °C 1013.8 hPa Calm     94% 0.25 mm 12 W/m2
19:49 24.2 °C 23.2 °C 1013.8 hPa Calm     94% 0.25 mm 12 W/m2
19:54 24.2 °C 23.2 °C 1014.1 hPa Calm     94% 0.25 mm 11 W/m2
19:59 24.2 °C 23.2 °C 1014.1 hPa Calm     94% 0.25 mm 9 W/m2
20:09 24.2 °C 23.2 °C 1014.1 hPa Calm     94.2% 0.25 mm 0 W/m2
20:14 24.2 °C 23.2 °C 1014.1 hPa Calm     94% 0.25 mm 0 W/m2
20:19 24.2 °C 23.2 °C 1014.1 hPa Calm     94% 0.25 mm 0 W/m2
20:24 24.2 °C 23.2 °C 1014.4 hPa Calm     94% 0.25 mm 0 W/m2
20:29 24.1 °C 23.1 °C 1014.4 hPa Calm     94% 0.25 mm 0 W/m2
20:34 24.1 °C 23.2 °C 1014.4 hPa Calm     94.4% 0.25 mm 0 W/m2
20:39 24.1 °C 23.3 °C 1014.4 hPa Calm     95% 0 mm 0 W/m2
20:44 24.1 °C 23.1 °C 1014.4 hPa Calm     94.1% 0 mm 0 W/m2
20:49 24.1 °C 23.1 °C 1014.4 hPa Calm     94.5% 0 mm 0 W/m2
20:54 24 °C 23.1 °C 1014.4 hPa Calm     95% 0 mm 0 W/m2
20:59 23.9 °C 23.1 °C 1014.4 hPa Calm     95% 0 mm 0 W/m2
21:04 23.9 °C 23.1 °C 1014.4 hPa Calm     95% 0 mm 0 W/m2
21:09 23.9 °C 23 °C 1014.4 hPa Calm     95% 0 mm 0 W/m2
21:14 23.8 °C 22.9 °C 1014.1 hPa Calm     94.7% 0 mm 0 W/m2
21:19 23.8 °C 23 °C 1014.1 hPa Calm     95% 0 mm 0 W/m2
21:24 23.8 °C 22.9 °C 1014.1 hPa Calm     95% 0 mm 0 W/m2
21:29 23.8 °C 22.9 °C 1014.4 hPa Calm     95% 0 mm 0 W/m2
21:34 23.7 °C 22.9 °C 1014.4 hPa Calm     95% 0 mm 0 W/m2
21:39 23.7 °C 22.9 °C 1014.4 hPa Calm     95% 0 mm 0 W/m2
21:44 23.7 °C 22.9 °C 1014.4 hPa Calm     95% 0 mm 0 W/m2
21:49 23.7 °C 22.9 °C 1014.4 hPa Calm     95% 0 mm 0 W/m2
21:54 23.7 °C 22.9 °C 1014.4 hPa Calm     95% 0 mm 0 W/m2
21:59 23.7 °C 22.9 °C 1014.4 hPa Calm     95% 0 mm 0 W/m2
22:04 23.7 °C 22.9 °C 1014.1 hPa Calm     95% 0 mm 0 W/m2
22:09 23.7 °C 22.8 °C 1014.1 hPa Calm     95% 0 mm 0 W/m2
22:14 23.7 °C 22.8 °C 1014.1 hPa Calm     95% 0 mm 0 W/m2
22:19 23.7 °C 22.8 °C 1014.1 hPa Calm     95% 0 mm 0 W/m2
22:24 23.7 °C 22.8 °C 1014.1 hPa Calm     95% 0 mm 0 W/m2
22:29 23.7 °C 22.8 °C 1014.1 hPa Calm     95% 0 mm 0 W/m2
22:34 23.6 °C 22.8 °C 1014.1 hPa Calm     95% 0 mm 0 W/m2
22:39 23.6 °C 22.7 °C 1014.1 hPa Calm     95% 0 mm 0 W/m2
22:44 23.6 °C 22.7 °C 1014.1 hPa Calm     95% 0 mm 0 W/m2
22:49 23.6 °C 22.7 °C 1014.1 hPa Calm     95% 0 mm 0 W/m2
22:54 23.5 °C 22.7 °C 1014.1 hPa Calm     95% 0 mm 0 W/m2
22:59 23.5 °C 22.7 °C 1014.1 hPa Calm     95% 0 mm 0 W/m2
23:04 23.5 °C 22.7 °C 1014.1 hPa Calm     95% 0 mm 0 W/m2
23:09 23.4 °C 22.6 °C 1014.1 hPa Calm     95% 0 mm 0 W/m2
23:14 23.4 °C 22.6 °C 1014.1 hPa Calm     95% 0 mm 0 W/m2
23:19 23.4 °C 22.6 °C 1014.1 hPa Calm     95% 0 mm 0 W/m2
23:24 23.4 °C 22.6 °C 1014.1 hPa Calm     95% 0 mm 0 W/m2
23:29 23.4 °C 22.6 °C 1014.1 hPa Calm     95% 0 mm 0 W/m2
23:34 23.3 °C 22.5 °C 1014.1 hPa Calm     95% 0 mm 0 W/m2
23:39 23.3 °C 22.5 °C 1014.1 hPa Calm     95% 0 mm 0 W/m2
23:44 23.3 °C 22.4 °C 1014.1 hPa Calm     95% 0 mm 0 W/m2
23:49 23.3 °C 22.4 °C 1014.1 hPa Calm     95% 0 mm 0 W/m2
23:54 23.2 °C 22.4 °C 1014.1 hPa Calm     95% 0 mm 0 W/m2
23:59 23.2 °C 22.4 °C 1014.1 hPa Calm     95% 0 mm 0 W/m2
Hartford County Weather
Compliments of Weather Underground - 2 mb